Regional Weather Roundup
Issued by NWS Albany, NY

Home | Current Version | Previous Version | Graphics & Text | Print | Product List | Glossary On
Versions: 1 2 3 4 5 6 7 8 9 10 11 12 13 14 15 16 17 18 19 20 21 22 23 24 25 26 27 28 29 30 31 32 33 34 35 36 37 38 39 40 41 42 43 44 45 46 47 48 49 50
000
ASUS41 KALY 090610
RWRALY

NEW YORK STATE HOURLY WEATHER ROUNDUP
NATIONAL WEATHER SERVICE ALBANY NY
100 AM EST TUE FEB 09 2016

NOTE: "FAIR" INDICATES FEW OR NO CLOUDS BELOW 12,000 FEET WITH NO
SIGNIFICANT WEATHER AND/OR NO OBSTRUCTIONS TO VISIBILITY.

NYZ032-033-038>043-046>054-057>066-NYZ062>081-090700-
EAST


CITY           SKY/WX    TMP DP  RH WIND       PRES   REMARKS
ALBANY         LGT SNOW  25  21  85 CALM      29.76F FOG
GLENS FALLS    LGT SNOW  22  19  89 E3        29.75F FOG
POUGHKEEPSIE   LGT SNOW  26  23  88 CALM      29.75F VSB 3/4
NEWBURGH       LGT SNOW  25  23  93 E9        29.73F WCI  15
MONTGOMERY     CLOUDY    25  22  88 NE5       29.72F FOG     WCI  19
WHITE PLAINS   MOCLDY    24  19  81 E5        29.72F WCI  18
ISLIP          CLOUDY    27  21  78 NE7       29.73F WCI  19
NEW YORK CITY  CLOUDY    28  23  81 E13       29.74F WCI  17
CENTRAL PARK   CLOUDY    28  21  75 E9        29.75F WCI  19
$$

NYZ005>009-017-018-044>046-055-056-090700-
CENTRAL


CITY           SKY/WX    TMP DP  RH WIND       PRES   REMARKS
FULTON         LGT SNOW  30  24  78 VRB7      29.63F WCI  23
SYRACUSE       LGT SNOW  27  25  92 E12       29.64F FOG     WCI  17
ROME           FLURRIES  25  20  81 E10       29.70F WCI  15
ELMIRA         FLURRIES  34  31  88 VRB5      29.58F WCI  30
BINGHAMTON     LGT SNOW  25  23  92 SE10      29.58F FOG     WCI  15
MONTICELLO     CLOUDY    21  19  93 E8        29.66F WCI  12
$$

NYZ026>034-041>043-090700-
NORTH


CITY           SKY/WX    TMP DP  RH WIND       PRES   REMARKS
WATERTOWN      CLOUDY    24  13  62 NE7       29.66F WCI  16
FORT DRUM      NOT AVBL
MASSENA        LGT SNOW  19  13  77 NE16      29.77F WCI   4
SARANAC LAKE   LGT SNOW  16  13  88 E6        29.63F FOG     WCI   7
PLATTSBURGH    LGT SNOW  20  16  84 N9        29.78F FOG     WCI   9
$$

NYZ001>004-010>016-019>021-090700-
WEST


CITY           SKY/WX    TMP DP  RH WIND       PRES   REMARKS
NIAGARA FALLS  LGT SNOW  35  31  85 SE6       29.52F FOG     WCI  30
BUFFALO        LGT SNOW  33  31  92 E6        29.53F FOG     WCI  28
DUNKIRK        CLOUDY    35  32  88 W7        29.54S WCI  29
JAMESTOWN      CLOUDY    32  28  86 SW9       29.50S WCI  24
WELLSVILLE     CLOUDY    32  26  78 S13G22    29.51F WCI  22
ROCHESTER      LGT SNOW  32  31  96 E7        29.57F FOG     WCI  26
PENN YAN       CLOUDY    32  29  88 SE7       29.57F WCI  26
$$

             KEY
       WCI = WIND CHILL INDEX
       VSB = VISIBILITY
       HX  = HEAT INDEX
$$




USA.gov is the U.S. government's official web portal to all federal, state and local government web resources and services.